Weather History for KITH - February, 2013

Change the Weather History Date:

Thursday, February 28, 2013

  Actual Average Record
Temperature  
Mean Temperature 33 °F -  
Max Temperature 36 °F 37 °F - (-1)
Min Temperature 30 °F 14 °F - (-1)
Degree Days  
Heating Degree Days 32    
Moisture  
Dew Point 31 °F    
Average Humidity 94    
Maximum Humidity 100    
Minimum Humidity 74    
Precipitation  
Precipitation 0.09 in - - ()
Sea Level Pressure  
Sea Level Pressure 29.60 in    
Wind  
Wind Speed 4 mph (WNW)    
Max Wind Speed 12 mph    
Max Gust Speed -    
Visibility 5 miles    
Events Fog , Rain , Snow    
Averages and records for this station are not official NWS values.
T = Trace of Precipitation, MM = Missing Value Source: NWS Daily Summary

Daily Weather History Graph

Daily Weather History Graph

Search for Another Location

Airport or City:

Trip Planner

Search our weather history database for the weather conditions in past years. The results will help you decide how hot, cold, wet, or windy it might be!

Date:

Astronomy

Feb. 28, 2013 Rise Set
Actual Time 6:42 AM EST 5:54 PM EST
Civil Twilight 6:14 AM EST 6:22 PM EST
Nautical Twilight 5:41 AM EST 6:55 PM EST
Astronomical Twilight 5:09 AM EST 7:28 PM EST
Moon 9:24 PM EST (2/28) 7:46 AM EST (2/28)
Length of Visible Light 12h 08m
Length of Day
11h 12m
Waning Gibbous, 91% of the Moon is Illuminated
Feb 28
Waning Gibbous
Mar 4
Last Quarter
Mar 11
New
Mar 19
First Quarter
Mar 27
Full

Hourly Weather History & Observations

Time (EST) Temp. Windchill Dew Point Humidity Pressure Visibility Wind Dir Wind Speed Gust Speed Precip Events Conditions
12:30 AM 35.6 °F 29.2 °F 33.8 °F 93% 29.56 in 10.0 mi WNW 8.1 mph - 0.00 in Rain Light Rain
1:05 AM 35.6 °F 30.7 °F 33.8 °F 93% 29.56 in 10.0 mi WNW 5.8 mph - 0.00 in Rain Light Rain
1:18 AM 35.6 °F 32.8 °F 33.8 °F 93% 29.56 in 10.0 mi WNW 3.5 mph - 0.00 in Rain Light Rain
1:56 AM 34.0 °F 31.0 °F 32.9 °F 96% 29.59 in 5.0 mi NW 3.5 mph - 0.01 in Rain Light Rain
2:36 AM 33.8 °F - 32.0 °F 93% 29.56 in 2.5 mi Calm Calm - 0.02 in Snow Light Snow
2:49 AM 33.8 °F - 32.0 °F 93% 29.55 in 1.8 mi Calm Calm - 0.03 in Snow Light Snow
2:56 AM 32.9 °F - 32.0 °F 96% 29.59 in 1.5 mi Calm Calm - 0.03 in Snow Light Snow
3:39 AM 32.0 °F - 32.0 °F 100% 29.55 in 2.0 mi Calm Calm - 0.01 in Snow Light Snow
3:56 AM 32.0 °F - 32.0 °F 100% 29.58 in 2.0 mi Calm Calm - 0.01 in   Overcast
4:05 AM 32.0 °F - 32.0 °F 100% 29.55 in 2.5 mi Calm Calm - 0.00 in   Overcast
4:12 AM 32.0 °F - 32.0 °F 100% 29.55 in 3.0 mi Calm Calm - 0.00 in   Overcast
4:23 AM 32.0 °F 28.7 °F 32.0 °F 100% 29.55 in 2.0 mi SSE 3.5 mph - 0.01 in Snow Light Snow
4:40 AM 33.8 °F - 32.0 °F 93% 29.55 in 3.0 mi Calm Calm - 0.02 in Snow Light Snow
4:46 AM 32.0 °F - 32.0 °F 100% 29.55 in 5.0 mi Calm Calm - 0.02 in Snow Light Snow
4:56 AM 32.0 °F - 32.0 °F 100% 29.58 in 10.0 mi Calm Calm - 0.02 in   Overcast
5:29 AM 32.0 °F - 32.0 °F 100% 29.56 in 10.0 mi Calm Calm - 0.00 in   Overcast
5:56 AM 32.0 °F - 32.0 °F 100% 29.59 in 10.0 mi Calm Calm - 0.00 in   Mostly Cloudy
6:18 AM 33.8 °F 30.8 °F 32.0 °F 93% 29.55 in 10.0 mi SSE 3.5 mph - 0.00 in   Overcast
6:56 AM 32.9 °F - 32.0 °F 96% 29.59 in 10.0 mi Calm Calm - 0.00 in Rain Light Rain Showers
7:56 AM 32.9 °F 29.8 °F 32.0 °F 96% 29.60 in 2.0 mi SW 3.5 mph - 0.00 in Snow Light Snow Showers
8:56 AM 32.9 °F 29.8 °F 32.0 °F 96% 29.60 in 2.0 mi SW 3.5 mph - 0.00 in Snow Light Snow
9:00 AM 33.8 °F 30.8 °F 32.0 °F 93% 29.57 in 2.0 mi SW 3.5 mph - 0.00 in Snow Light Snow
9:07 AM 33.8 °F 30.8 °F 32.0 °F 93% 29.57 in 2.0 mi SW 3.5 mph - 0.00 in Snow Light Snow
9:56 AM 34.0 °F 28.8 °F 32.0 °F 92% 29.60 in 2.0 mi SW 5.8 mph - 0.01 in Snow Light Snow
10:32 AM 35.6 °F 32.8 °F 32.0 °F 87% 29.57 in 5.0 mi SW 3.5 mph - 0.00 in Snow Light Snow Showers
10:56 AM 34.9 °F 30.8 °F 31.1 °F 86% 29.60 in 7.0 mi West 4.6 mph - 0.00 in Snow Light Snow Showers
11:46 AM 35.6 °F - 30.2 °F 81% 29.57 in 10.0 mi Calm Calm - 0.00 in   Overcast
11:56 AM 34.9 °F - 31.1 °F 86% 29.60 in 10.0 mi Calm Calm - 0.00 in   Overcast
12:56 PM 36.9 °F 33.1 °F 29.1 °F 74% 29.59 in 10.0 mi WNW 4.6 mph - 0.00 in   Overcast
1:56 PM 36.0 °F 30.3 °F 30.0 °F 79% 29.58 in 10.0 mi WNW 6.9 mph - N/A   Overcast
2:56 PM 36.0 °F 28.0 °F 31.1 °F 82% 29.59 in 7.0 mi NW 11.5 mph - 0.00 in Snow Light Snow
3:56 PM 32.9 °F 27.5 °F 31.1 °F 93% 29.60 in 0.5 mi NW 5.8 mph - 0.00 in Fog , Snow Light Snow
4:05 PM 33.8 °F 30.8 °F 30.2 °F 87% 29.57 in 1.2 mi NW 3.5 mph - 0.00 in Snow Light Snow
4:56 PM 32.9 °F - 32.0 °F 96% 29.61 in 7.0 mi Calm Calm - 0.01 in   Overcast
6:56 PM 32.9 °F - 32.0 °F 96% 29.65 in 5.0 mi Calm Calm - 0.00 in Snow Light Snow
7:56 PM 32.0 °F 28.7 °F 30.0 °F 92% 29.66 in 10.0 mi NW 3.5 mph - 0.00 in Snow Light Snow
8:56 PM 32.0 °F 24.2 °F 30.0 °F 92% 29.67 in 5.0 mi NW 9.2 mph - 0.00 in Snow Light Snow
9:56 PM 31.1 °F 23.7 °F 30.0 °F 96% 29.69 in 10.0 mi NNW 8.1 mph - 0.00 in Snow Light Snow
10:29 PM 30.2 °F 23.4 °F 30.2 °F 100% 29.66 in 2.0 mi NW 6.9 mph - 0.00 in Snow Light Snow
10:56 PM 31.1 °F 24.5 °F 30.0 °F 96% 29.69 in 1.8 mi NW 6.9 mph - 0.00 in Snow Light Snow
11:03 PM 30.2 °F 21.9 °F 30.2 °F 100% 29.65 in 2.5 mi NW 9.2 mph - 0.00 in Snow Light Snow
11:25 PM 30.2 °F 21.9 °F 30.2 °F 100% 29.66 in 3.0 mi NW 9.2 mph - 0.00 in Snow Light Snow
11:41 PM 30.2 °F 21.3 °F 30.2 °F 100% 29.66 in 2.5 mi NW 10.4 mph - 0.00 in Snow Light Snow
11:49 PM 30.2 °F 20.8 °F 30.2 °F 100% 29.66 in 3.0 mi NW 11.5 mph - 0.00 in Snow Light Snow
11:56 PM 31.1 °F 23.1 °F 31.1 °F 100% 29.69 in 5.0 mi NNW 9.2 mph - 0.00 in Snow Light Snow